Location: Bauen
(46.9356°N, 8.5784°E)
Time: 11:40:49
(UTC+00:00)

STARLINK-1081 - Pass Details

Date: 18 February 2020
Orbit: 379 x 380 km, 53.0° (Epoch: 09 April)

Event Time Altitude Azimuth Distance (km) Brightness Sun altitude
Exits shadow 05:36:40 10° 245° (WSW) 1,387 5.2 -9.1°
Reaches altitude 10° 05:36:45 10° 245° (WSW) 1,356 5.1 -9.1°
Maximum altitude 05:39:46 78° 331° (NNW) 379 2.7 -8.6°
Drops below altitude 10° 05:42:48 10° 59° (ENE) 1,362 6.5 -8.1°
Sets 05:44:51 0° 61° (ENE) 2,214 7.6 -7.7°
